This is the latest recevied weather packets stored in our database for station/object DJ0JJ-11. If no packets are shown the sender has not sent any weather packets the latest 10 day(s).
| Time | Temp. | Humidity | Pressure | Rain* | Wind** | Luminosity | Snow |
|---|---|---|---|---|---|---|---|
| 1777636712 | 21.11° C | 23% | 1025.7 hPa | - | - | - | - |
| 1777635812 | 20.56° C | 23% | 1025.8 hPa | - | - | - | - |
| 1777634912 | 20.56° C | 24% | 1026 hPa | - | - | - | - |
| 1777634012 | 20° C | 24% | 1026.3 hPa | - | - | - | - |
| 1777633111 | 19.44° C | 23% | 1026.5 hPa | - | - | - | - |
| 1777632211 | 19.44° C | 25% | 1026.7 hPa | - | - | - | - |
| 1777631311 | 18.89° C | 24% | 1026.8 hPa | - | - | - | - |
| 1777630411 | 18.89° C | 29% | 1026.9 hPa | - | - | - | - |
| 1777629511 | 18.33° C | 26% | 1027 hPa | - | - | - | - |
| 1777628611 | 17.22° C | 26% | 1027.1 hPa | - | - | - | - |
| 1777627710 | 17.22° C | 26% | 1027.2 hPa | - | - | - | - |
| 1777626810 | 16.11° C | 28% | 1027.3 hPa | - | - | - | - |
| 1777625910 | 15.56° C | 31% | 1027.4 hPa | - | - | - | - |
| 1777625010 | 15.56° C | 32% | 1027.3 hPa | - | - | - | - |
| 1777624110 | 15.56° C | 30% | 1027.3 hPa | - | - | - | - |
| 1777623210 | 15° C | 33% | 1027.2 hPa | - | - | - | - |
| 1777622310 | 14.44° C | 34% | 1027.1 hPa | - | - | - | - |
| 1777621409 | 14.44° C | 34% | 1027.1 hPa | - | - | - | - |
| 1777620509 | 13.89° C | 35% | 1027 hPa | - | - | - | - |
| 1777619609 | 13.33° C | 38% | 1027.1 hPa | - | - | - | - |
| 1777618709 | 12.22° C | 41% | 1027 hPa | - | - | - | - |
| 1777617809 | 11.67° C | 42% | 1027 hPa | - | - | - | - |
| 1777616909 | 10.56° C | 43% | 1027.1 hPa | - | - | - | - |
| 1777616009 | 10.56° C | 43% | 1026.9 hPa | - | - | - | - |
| 1777615109 | 10° C | 44% | 1026.9 hPa | - | - | - | - |
* Rain since midnight (hover to see other rain measurements)
** Current wind speed in m/s (hover to see current wind gust speed)